ARKTIKA-M 2

Last updated on Sat Aug 15 2026 00:02:41 GMT+0000 (Coordinated Universal Time)

1 58584U 23198A 26223.59169061 .00000084 00000+0 00000+0 0 9995 2 58584 63.2140 148.1493 6919083 267.2628 18.7100 2.00596455 19437
UTC large
Height (km)
Speed (km/s)
/
Latitude / Longitude
Inclination (degrees)
Orbital Period (minutes)
Azimuth
Elevation
Range (km)
Doppler Factor

Next 0 passes for location: London (51.5072 / 0.1276)

No passes found over London.
ARKTIKA-M 2